Location: Rio Negrinho
(26.2394°S, 49.4999°W)
Time: 19:57:51
(UTC+00:00)

Envisat - Pass Details

Date: 24 July 2021
Orbit: 764 x 766 km, 98.2° (Epoch: 17 September)

Event Time Altitude Azimuth Distance (km) Brightness Sun altitude
Rises 06:43:07 0° 57° (ENE) 3,223 6.8 -44.1°
Reaches altitude 10° 06:46:32 10° 81° (E) 2,307 6.1 -43.4°
Enters shadow 06:48:07 13° 99° (E) 2,085 5.8 -43.0°
